Activity Log for Jan, 28 2019

Back to Activity Log Search


Incident Time Nature Address
19F009975 00:11:11 40H HOLDUP ALRM 18XX N COLISEUM BLVD
19F009976 00:15:17 40 ALARM 40XX E STATE BLVD
19F009977 00:36:53 14 WARRANT 10XX W COLISEUM BLVD
19F009978 00:43:24 46 DOMESTIC 51XX COVENTRY PKWY
19F009979 00:50:28 129 7XX E STATE BLVD
19F009980 00:50:44 41,36 14XX W WASHINGTON CENTER RD
19F009981 00:51:33 14 WARRANT 21XX SHERMAN BLVD
19F009982 00:57:38 37 PARKING VIOL 7XX ROMY AVE
19F009983 00:59:48 37 PARKING VIOL 7XX ROMY AVE
19F009984 01:01:00 30 TRAFFIC STOP ILLINOIS RD & DELL COVE DR
19F009985 01:11:13 96 BATTERY 93XX PARKWAY DR
19F009986 01:15:24 30 TRAFFIC STOP ST JOE RD & ST JOE CENTER RD
19F009987 01:25:07 30 TRAFFIC STOP 27XX RADCLIFFE DR
19F009988 01:32:22 99 NARCOTICS 21XX EDEN ST
19F009989 01:34:07 30 TRAFFIC STOP TAYLOR ST & ARDMORE AVE
19F009990 01:36:34 50,ATTEMPTED 12XX W JEFFERSON BLVD
19F009991 01:50:04 27 RECKLESS DRI S CLINTON ST & E SUPERIOR ST
19F009992 01:52:00 43 DISTURBANCE 8XX RUSSELL AVE
19F009993 01:58:19 40A AUDIBLE 22XX PENNSYLVANIA ST
19F009994 02:10:27 30 TRAFFIC STOP 27XX W COLISEUM BLVD
19F009995 02:14:08 22RN RUNAWAY 23XX VANCE AVE
19F009996 02:23:11 129 83XX BRIDGEWAY CIR
19F009997 02:24:22 46 DOMESTIC 40XX S LAFAYETTE ST
19F009998 02:39:34 50IP BURG I/P 27XX SWIFT DR
19F009999 02:58:38 33,34 S CLINTON ST & E SUPERIOR ST
19F010000 03:00:20 30 TRAFFIC STOP 29XX GOSHEN RD
19F010001 03:07:57 66 MENTALLY ILL 18XX GRISWOLD DR
19F010002 03:13:21 48 SUSPICIOUS 66XX E STATE BLVD
19F010003 03:35:52 48 SUSPICIOUS 18XX CARLTON AVE
19F010004 03:46:30 51JO 23XX SHERMAN BLVD
19F010005 03:53:40 48 SUSPICIOUS COVINGTON RD & BROOKLYN AVE
19F010006 03:56:36 EMS 23XX LONGLEAF DR
19F010007 04:12:21 14 WARRANT 8XX RIDGEWOOD DR
19F010008 04:31:32 102 THREATS 59XX ILLINOIS RD
19F010009 04:41:51 48 SUSPICIOUS 7XX HOFER AVE
19F010010 04:47:19 66 MENTALLY ILL 29XX WESTBROOK DR
19F010011 04:55:29 30 TRAFFIC STOP PONTIAC TURNAROUND & PIONEER ST
19F010012 05:14:01 30 TRAFFIC STOP ST JOE RD & EVARD RD
19F010013 05:30:03 40P PANIC ALARM 27XX CAPITOL AVE
19F010014 05:38:38 911 HANG UP 52XX WYNDEMERE CT
19F010019 05:51:38 EMS 35XX IVY LEAGUE DR
19F010015 06:00:03 33 DISABLED VEH COLDWATER RD & WINDRIFT LN
19F010017 06:09:04 32A DEATH NOTIF 20XX WINDING CREEK LN
19F010016 06:13:04 30 TRAFFIC STOP N CLINTON ST & GARDEN PARK DR
19F010018 06:26:00 46 DOMESTIC 43XX MIRADA DR
19F010020 06:39:44 40A AUDIBLE 16XX E PONTIAC ST
19F010021 06:43:10 108 FOLLOWUP 7XX E DUPONT RD
19F010022 06:44:46 18 WORK TRAFFIC 43XX NEW HAVEN AVE
19F010023 06:55:32 EMS 51XX BOWSER AVE
19F010027 07:04:17 18 WORK TRAFFIC PEMBERTON DR & FOREST AVE
19F010028 07:04:52 18 WORK TRAFFIC SOUTHWAYNE AVE & PASADENA DR
19F010032 07:05:16 18 WORK TRAFFIC TAMARACK DR & OTTAWA DR
19F010035 07:05:42 18 WORK TRAFFIC TRIER RD & FERNBANK DR
19F010024 07:09:49 25HS HIT SKIP 14XX WELLS ST
19F010025 07:14:58 46,96 E JEFFERSON BLVD & S LAFAYETTE ST
19F010026 07:15:26 39 STOLEN VEHIC 26XX ETHEL AVE
19F010029 07:22:22 40A AUDIBLE 70XX CORLINE ST
19F010030 07:26:28 40H HOLDUP ALRM 42XX HOBSON CT
19F010031 07:29:09 50 BURGLARY 10XX E PETTIT AVE
19F010033 07:33:33 40A AUDIBLE 75XX S ANTHONY BLVD
19F010034 07:36:41 51 THEFT 38XX CONCEPT CT
19F010036 07:44:47 46 DOMESTIC 46XX BOWSER AVE
19F010037 07:45:54 25 PD ACCIDENT 18XX FRENCHMANS XING
19F010039 07:50:28 48 SUSPICIOUS 63XX LIMA RD
19F010038 07:51:14 50,ATTEMPTED 18XX W DUPONT RD
19F010040 07:54:27 25,86 TULIP TREE RD & RED HAW DR
19F010041 08:02:34 30 TRAFFIC STOP TAYLOR ST & FREEMAN ST
19F010042 08:08:34 44LM 25XX ST MARYS AVE
19F010043 08:16:57 26 PI ACCIDENT 94XX W JEFFERSON BLVD
19F010044 08:23:12 25 PD ACCIDENT W JEFFERSON BLVD & FAIRFIELD AVE
19F010045 08:23:31 25,86 93XX N CLINTON ST
19F010046 08:28:34 39R STOLEN RECO 24XX W STATE BLVD
19F010070 08:30:11 25HS HIT SKIP 16XX CARIBOU DR
19F010049 08:36:00 25HS HIT SKIP 30XX SMITH ST
19F010047 08:37:37 43 DISTURBANCE 2XX E RUDISILL BLVD
19F010048 08:39:01 23,113 78XX CARNEGIE BLVD
19F010071 08:42:06 17 MOTOR CHECK 9XX W COLISEUM BLVD
19F010052 08:43:44 47 REMOVE ITEMS 47XX SPATZ AVE
19F010051 08:53:13 40A AUDIBLE 6XX CHOCTAW PASS
19F010053 08:58:22 50,ATTEMPTED 17XX APPLE GLEN BLVD
19F010054 09:04:21 65T SUICIDE THR 50XX MOUNT VERNON PARK DR
19F010055 09:08:31 109 DUMPING 5XX CLAYTON AVE
19F010057 09:08:39 39R STOLEN RECO 103XX MAYSVILLE RD
19F010065 09:09:15 39 STOLEN VEHIC 31XX ROBINWOOD DR
19F010056 09:10:10 23,35 VAND VEH 37XX NEW HAVEN AVE
19F010058 09:10:27 40A AUDIBLE 2XX E WOODLAND AVE
19F010063 09:13:20 39 STOLEN VEHIC 11XX S CLINTON ST
19F010060 09:16:31 25 PD ACCIDENT E MAIN ST & S CALHOUN ST
19F010062 09:17:32 25 PD ACCIDENT N CLINTON ST & E WASHINGTON CENTER
19F010061 09:18:02 25 PD ACCIDENT ST JOE CENTER RD & N CLINTON ST
19F010064 09:20:25 51 THEFT 61XX MONARCH DR
19F010066 09:21:26 39U UNAUTHORIZE 11XX S CLINTON ST
19F010067 09:28:54 36 OCCUPIED VEH SR 3 & SIMON RD
19F010068 09:30:19 97A LOST ITEMS 22XX RANDALLIA DR
19F010083 09:32:35 17 MOTOR CHECK 44XX NEW HAVEN AVE
19F010073 09:33:04 EMS 1XX W COLUMBIA ST
19F010074 09:33:42 33,34 E PONTIAC ST & E WAYNE TRACE
19F010072 09:41:03 25 PD ACCIDENT COLDWATER RD & E ESSEX LN
19F010081 09:44:19 22RN RUNAWAY 11XX E RUDISILL BLVD
19F010075 09:47:42 911 HANG UP 47XX ST JOE RD
19F010077 09:49:01 37 PARKING VIOL 22XX CRESCENT AVE
19F010076 09:51:10 48 SUSPICIOUS E MAIN ST & S CALHOUN ST
19F010078 09:53:23 97 FOUND ITEMS 47XX SPATZ AVE
19F010079 10:01:25 48,36 101XX LIMA RD
19F010080 10:06:51 25 PD ACCIDENT ST JOSEPH BLVD & TENNESSEE AVE
19F010082 10:10:12 25HS HIT SKIP 11XX S CLINTON ST
19F010084 10:15:34 25 PD ACCIDENT 312XX I 69 NB
19F010086 10:17:08 43 DISTURBANCE 23XX FLORIDA DR
19F010085 10:17:12 26 PI ACCIDENT AIRPORT EXPRESSWAY & FAIRFIELD AVE
19F010087 10:17:41 43 DISTURBANCE 25XX BROADWAY
19F010088 10:20:25 25 PD ACCIDENT COLDWATER RD & E DUPONT RD
19F010089 10:24:40 30 TRAFFIC STOP W JEFFERSON BLVD & EDGEBROOK DR
19F010090 10:30:36 911 HANG UP 72XX BEATY AVE
19F010091 10:32:08 25 PD ACCIDENT SCHICK ST & E WASHINGTON BLVD
19F010092 10:33:30 30 TRAFFIC STOP S CALHOUN ST & W RUDISILL BLVD
19F010093 10:34:33 22I JUV INVEST 4XX E STATE BLVD
19F010094 10:36:05 40A AUDIBLE 23XX BOWSER AVE
19F010095 10:40:49 27 RECKLESS DRI OLD TRAIL RD & LOWER HUNTINGTON RD
19F010097 10:42:56 25HS HIT SKIP 25XX BOWSER AVE
19F010096 10:43:49 25 PD ACCIDENT EVARD RD & ST JOE RD
19F010098 10:52:31 33,34 APPLE GLEN BLVD & W JEFFERSON BLVD
19F010099 10:56:42 40A AUDIBLE 24XX STANFORD AVE
19F010100 10:56:58 50,ATTEMPTED 51XX INDUSTRIAL RD
19F010101 11:00:09 46 DOMESTIC 12XX NUTTMAN AVE
19F010102 11:00:32 63 CONTACT 47XX SPATZ AVE
19F010103 11:01:32 65T SUICIDE THR 27XX W WASHINGTON CENTER RD LOT 37
19F010104 11:03:47 34 TRAFF HAZARD 309XX I 69 NB
19F010105 11:08:25 101 OPEN DOOR 25XX EUCLID AVE
19F010106 11:08:40 43 DISTURBANCE 33XX W COLISEUM BLVD
19F010107 11:12:37 33 DISABLED VEH 310XX I 69 NB
19F010108 11:13:01 46 DOMESTIC 28XX CHESTNUT ST
19F010109 11:15:29 48,36 BEACON ST & E STATE BLVD
19F010111 11:25:41 96 BATTERY 27XX E PAULDING RD
19F010110 11:26:00 46 DOMESTIC 34XX SMITH ST
19F010112 11:32:02 51 THEFT 8XX W JEFFERSON BLVD APT 201
19F010113 11:32:49 51 THEFT 72XX DEERPOINTE CV
19F010114 11:41:24 15 ASSIST 19XX KINSMOOR AVE
19F010115 11:43:45 46 DOMESTIC 47XX S ANTHONY BLVD
19F010116 11:44:58 65T SUICIDE THR 8XX W WILDWOOD AVE
19F010117 11:45:50 25 PD ACCIDENT 316XX I 69 SB
19F010118 11:46:30 25 PD ACCIDENT MAPLECREST RD & LAKE AVE
19F010119 11:48:49 25 PD ACCIDENT 33XX W COLISEUM BLVD
19F010120 11:49:11 33,34 311XX I 69 SB
19F010121 11:52:57 33 DISABLED VEH COLDWATER RD & ELDERBERRY DR
19F010122 11:57:10 51,35 6XX WALNUT ST
19F010123 11:58:39 25 PD ACCIDENT 56XX ST JOE RD
19F010124 11:59:57 103 UNWANTED 30XX W COLISEUM BLVD
19F010125 12:00:39 911 HANG UP 12XX GOSHEN AVE
19F010126 12:03:15 40A AUDIBLE 75XX DECATUR RD LOT 124
19F010132 12:08:20 63 CONTACT 26XX ABBEY DR
19F010131 12:09:51 33,34 HOBSON RD & STELLHORN RD
19F010127 12:13:13 51 THEFT 18XX MARY ST
19F010133 12:14:18 63 CONTACT 44XX GAYWOOD DR
19F010129 12:15:30 46 DOMESTIC 56XX W YMCA PARK DR
19F010128 12:16:01 51 THEFT 50XX REBECCA ST
19F010141 12:16:47 25HS HIT SKIP 44XX BOWSER AVE
19F010130 12:17:41 23,35 VAND VEH 16XX HOWELL ST
19F010134 12:22:37 41 MAN DOWN 13XX GREENE ST
19F010135 12:23:41 40A AUDIBLE 67XX POINTE INVERNESS WAY
19F010136 12:26:13 43 DISTURBANCE W JEFFERSON BLVD & FAIRFIELD AVE
19F010137 12:31:02 XX E MAIN ST
19F010138 12:35:34 33 DISABLED VEH GOSHEN AVE & HARVARD BLVD
19F010143 12:36:41 EMS 1XX W BAKER ST
19F010139 12:38:45 46 DOMESTIC 56XX SQUIREDALE LN
19F010140 12:40:31 33,34 ST JOE RD & ST JOE CENTER RD
19F010142 12:40:35 33J LOCKED OUT 46XX HEATHERWIND DR
19F010144 12:45:23 15 ASSIST 21XX RED OAK RUN
19F010174 12:50:07 50 BURGLARY 23XX SHADY BROOK DR
19F010145 12:50:37 65T SUICIDE THR 35XX TAYLOR ST
19F010147 12:51:29 48,36 11XX N COLISEUM BLVD
19F010146 12:51:39 1 MEET 81XX AMHERST DR
19F010152 12:52:45 18 WORK TRAFFIC 65XX N CLINTON ST
19F010148 12:54:43 66 MENTALLY ILL 33XX THURBER AVE
19F010149 12:55:54 40A AUDIBLE 19XX LAWNDALE DR
19F010150 12:58:09 40A AUDIBLE 49XX OLD MAYSVILLE RD
19F010151 12:58:53 41,36 OXFORD ST & LILLIE ST
19F010153 13:02:12 103 UNWANTED 10XX S CALHOUN ST
19F010154 13:05:29 51 THEFT 56XX ST JOE RD
19F010155 13:05:59 103 UNWANTED 31XX W COLISEUM BLVD
19F010172 13:07:44 22RN RUNAWAY 33XX WINTER ST
19F010156 13:10:45 43,62 6XX E JEFFERSON BLVD
19F010158 13:15:27 22RC RECOVERY 29XX WELLS ST
19F010157 13:16:14 129 45XX MORNING WIND PL
19F010160 13:21:34 25 PD ACCIDENT 304XX I 69 NB
19F010159 13:22:42 33,34 DARTMOUTH DR & E WASHINGTON CENTER
19F010165 13:25:22 51 THEFT 47XX S ANTHONY BLVD
19F010161 13:29:43 40H HOLDUP ALRM 55XX COLDWATER RD
19F010163 13:34:58 46 DOMESTIC 67XX AUTUMN CHASE DR
19F010162 13:37:20 46 DOMESTIC 51XX TRUEMPER WAY APT 6
19F010164 13:40:16 40A AUDIBLE 9XX WOODLAND PLAZA RUN
19F010175 13:44:54 46,96 XX E MAIN ST
19F010166 13:46:21 25HS HIT SKIP 68XX W JEFFERSON BLVD
19F010260 13:49:45 22RC RECOVERY 27XX CHARLOTTE AVE
19F010167 13:54:57 1 MEET 6XX E DUPONT RD
19F010168 13:56:22 30 TRAFFIC STOP W COLISEUM BLVD & GOSHEN RD
19F010169 13:57:28 96 BATTERY 42XX WELLS ST
19F010170 13:59:47 48 SUSPICIOUS 35XX REDBIRD TRL
19F010173 14:01:16 33,34 AIRPORT EXPRESSWAY & BLUFFTON RD
19F010171 14:01:22 129 3XX W SUTTENFIELD AVE
19F010176 14:04:59 96 BATTERY LIMA RD & W COLISEUM BLVD
19F010179 14:07:16 44LB 11XX HAMILTON AVE
19F010177 14:09:16 99 NARCOTICS 5XX E DUPONT RD
19F010180 14:09:38 17 MOTOR CHECK 48XX KROEMER RD
19F010178 14:09:45 30 TRAFFIC STOP W JEFFERSON BLVD & BROADWAY
19F010181 14:11:13 33J LOCKED OUT 5XX E LEITH ST
19F010186 14:14:59 18 WORK TRAFFIC E STATE BLVD & LAVERNE AVE
19F010188 14:15:36 18 WORK TRAFFIC TRIER RD & FERNBANK DR
19F010183 14:16:16 22I JUV INVEST 3XX S CORNELL CIR
19F010185 14:16:46 18 WORK TRAFFIC SOUTHWAYNE AVE & PASADENA DR
19F010182 14:17:26 63 CONTACT 6XX E DUPONT RD
19F010184 14:21:59 63 CONTACT 35XX REYNOLDS ST
19F010187 14:40:32 33,34 S LAFAYETTE ST & E PETTIT AVE
19F010190 14:44:26 20 PROBLEM UNK 40XX BUESCHING DR
19F010189 14:44:41 30 TRAFFIC STOP S CALHOUN ST & W RUDISILL BLVD
19F010191 14:46:13 30 TRAFFIC STOP S CLINTON ST & E RUDISILL BLVD
19F010196 14:47:37 99 NARCOTICS 41XX N CLINTON ST
19F010192 14:47:52 46,96 72XX PEERLESS DR
19F010193 14:48:19 50,ATTEMPTED 5XX SPRING ST
19F010195 14:49:59 103 UNWANTED 3XX W BERRY ST
19F010194 14:50:37 30 TRAFFIC STOP S CLINTON ST & E PONTIAC ST
19F010197 14:52:03 99 NARCOTICS 19XX HOBSON RD UNIT 210
19F010198 15:06:30 911 HANG UP 22XX WAYNE TRACE
19F010199 15:16:02 66V MENTAL VIOL 32XX DIPLOMAT DR
19F010200 15:19:13 30 TRAFFIC STOP VANCE AVE & DELRAY DR
19F010202 15:21:14 101 OPEN DOOR 76XX SEA ISLE PL
19F010201 15:22:43 103 UNWANTED 10XX S CALHOUN ST
19F010204 15:23:30 43 DISTURBANCE 27XX MANFORD ST
19F010203 15:25:07 46 DOMESTIC 9XX LINCOLN AVE UNIT B
19F010205 15:25:14 48,36 40XX ASPEN CT
19F010206 15:29:47 30 TRAFFIC STOP I 469 SB & LAFAYETTE CENTER RD
19F010207 15:30:02 51JO 20XX BROOKLYN AVE
19F010208 15:31:55 37 PARKING VIOL 30XX HOAGLAND AVE
19F010209 15:34:23 63 CONTACT 30XX GOSHEN RD
19F010211 15:34:46 25 PD ACCIDENT W CREIGHTON AVE & S CALHOUN ST
19F010210 15:35:37 129 32XX DIPLOMAT DR
19F010212 15:38:45 99 NARCOTICS XX E MAIN ST
19F010213 15:38:52 99 NARCOTICS 28XX E STATE BLVD
19F010221 15:43:37 51 THEFT 69XX TRIER RD
19F010215 15:46:02 34 TRAFF HAZARD HOBSON RD & CHARLOTTE AVE
19F010214 15:46:35 30 TRAFFIC STOP MCKINNIE AVE & ABBOTT ST
19F010216 15:50:11 37 PARKING VIOL 10XX DEARBORN ST
19F010217 15:51:29 25 PD ACCIDENT ST MARYS AVE & PUTNAM ST
19F010219 15:53:23 ATL 25XX MAPLE PL
19F010218 15:53:45 51 THEFT 81XX LAKESIDE CT UNIT 3B
19F010220 15:55:58 51 THEFT 24XX OTSEGO DR
19F010222 15:59:08 103 UNWANTED 31XX W COLISEUM BLVD
19F010226 16:00:33 63 CONTACT W JEFFERSON BLVD & TAYLOR ST
19F010223 16:02:18 129 35XX WAYNE TRACE
19F010225 16:03:30 25 PD ACCIDENT 20XX POINSETTE DR
19F010224 16:03:46 48 SUSPICIOUS AIRPORT EXPRESSWAY & LOWER HUNTING
19F010228 16:11:51 25 PD ACCIDENT LIMA RD & W COLISEUM BLVD
19F010227 16:12:03 46 DOMESTIC 52XX PIN TAIL PL
19F010235 16:17:17 17 MOTOR CHECK 16XX ASHLEY AVE
19F010230 16:18:45 EMS 57XX TOMAHAWK TRL
19F010229 16:19:06 40A AUDIBLE 53XX S HANNA ST
19F010231 16:19:08 15 ASSIST 37XX ELMHURST DR
19F010232 16:23:41 25 PD ACCIDENT E STATE BLVD & SPY RUN AVE
19F010237 16:24:43 24 MISSING PERS 19XX CHEROKEE RD
19F010233 16:25:50 30 TRAFFIC STOP CILANTRO CV & KNOLLTON RUN
19F010234 16:29:55 46 DOMESTIC 14XX HIGH ST
19F010236 16:35:08 96JO 30XX PENNSYLVANIA ST
19F010238 16:39:34 48 SUSPICIOUS 20XX KENTUCKY AVE
19F010239 16:43:24 129 GOODRICH RD & BLAKE DR
19F010240 16:44:13 63 CONTACT 4XX PEARL ST
19F010241 16:45:21 30 TRAFFIC STOP ST MARYS AVE & W STATE BLVD
19F010242 16:45:57 48 SUSPICIOUS 7XX COLUMBIA AVE
19F010243 16:47:13 40A AUDIBLE 34XX ST ALBAN CT
19F010251 16:49:55 37 PARKING VIOL 11XX BURGESS ST
19F010245 16:52:44 108 FOLLOWUP 41XX N CLINTON ST
19F010247 16:53:39 99 NARCOTICS 7XX E DUPONT RD
19F010246 16:54:44 25HS HIT SKIP 32XX MCCORMICK AVE
19F010244 16:55:49 65T SUICIDE THR 59XX DECATUR RD
19F010248 16:58:10 22RC RECOVERY 29XX WELLS ST
19F010249 17:01:39 25 PD ACCIDENT 33XX LILLIE ST
19F010250 17:02:54 50 BURGLARY 65XX HADLEY FARM LN
19F010252 17:06:49 48 SUSPICIOUS 11XX N COLISEUM BLVD
19F010253 17:09:33 25 PD ACCIDENT 12XX S CLINTON ST
19F010254 17:10:31 43,62 36XX MCCORMICK AVE
19F010255 17:14:56 43 DISTURBANCE 1XX GERKE AVE
19F010256 17:19:01 46 DOMESTIC 60XX ILLINOIS RD
19F010257 17:20:09 25 PD ACCIDENT 46XX JASON DR
19F010262 17:21:26 ATL 13XX E GOLDSPUR DR
19F010266 17:22:56 17 MOTOR CHECK 20XX KENTUCKY AVE
19F010261 17:23:33 25 PD ACCIDENT LIMA RD & W COLISEUM BLVD
19F010258 17:23:51 25 PD ACCIDENT EXECUTIVE BLVD & PROGRESS RD
19F010259 17:24:57 51 THEFT W JEFFERSON BLVD & FAIRFIELD AVE
19F010263 17:28:35 1 MEET 29XX WELLS ST
19F010264 17:32:05 46 DOMESTIC 13XX UNION ST
19F010277 17:32:56 39U UNAUTHORIZE 79XX DECATUR RD
19F010265 17:35:13 51 THEFT 18XX SINCLAIR ST
19F010267 17:38:28 30 TRAFFIC STOP W JEFFERSON BLVD & W WASHINGTON BL
19F010268 17:40:54 51 THEFT 90XX SPRING FOREST DR
19F010269 17:40:57 40A AUDIBLE 7XX HIGH ST
19F010287 17:40:57 47 REMOVE ITEMS 26XX SMITH ST
19F010270 17:41:10 46 DOMESTIC 51XX TRUEMPER WAY APT 6
19F010285 17:42:47 39R STOLEN RECO 20XX SHADY BROOK DR
19F010271 17:43:14 103 UNWANTED 9XX LIBRARY PLAZA
19F010272 17:44:45 24 MISSING PERS 5XX RED BLUFF DR
19F010274 17:48:00 40A AUDIBLE 26XX MCKINNIE AVE
19F010273 17:50:56 33,34 THIRD ST & WELLS ST
19F010276 17:51:23 102,TX THREATS 11XX S CLINTON ST
19F010275 17:52:22 25 PD ACCIDENT WINNSBORO PASS & LYNDHURST CT
19F010280 17:54:14 34 TRAFF HAZARD IRENE AVE & WELLS ST
19F010278 17:58:01 51 THEFT 11XX RIVERMET AVE
19F010279 17:59:09 40H HOLDUP ALRM 33XX E PAULDING RD
19F010281 18:08:50 46 DOMESTIC 14XX E LEWIS ST
19F010282 18:16:46 63 CONTACT XX E MAIN ST
19F010283 18:19:46 33,34 317XX I 69 NB
19F010284 18:24:47 40A AUDIBLE 28XX W COLISEUM BLVD
19F010288 18:31:54 40A AUDIBLE 126XX COLDWATER RD
19F010289 18:33:58 25 PD ACCIDENT W PONTIAC ST & S HARRISON ST
19F010294 18:34:55 33,34 16XX LUMBARD ST
19F010290 18:36:18 66V MENTAL VIOL 37XX GOEGLEIN RD
19F010295 18:36:38 24 MISSING PERS 11XX E LEWIS ST
19F010291 18:39:21 65A SUICIDE ATT 49XX HEMLOCK LN
19F010293 18:41:31 25 PD ACCIDENT 31XX PENNSYLVANIA ST
19F010296 18:42:06 102,TX THREATS 61XX LANDOVER PL
19F010292 18:44:57 43 DISTURBANCE 33XX W COLISEUM BLVD
19F010297 18:53:24 25,86 COLDWATER RD & E WALLEN RD
19F010298 18:54:18 48,36 19XX KENSINGTON BLVD
19F010302 18:55:31 37 PARKING VIOL 2XX W PACKARD AVE
19F010301 18:56:57 25 PD ACCIDENT W TILL RD & LIMA RD
19F010303 18:57:16 25HS HIT SKIP TENNESSEE AVE & CRESCENT AVE
19F010300 18:57:26 46 DOMESTIC 38XX TRACE WAY
19F010299 18:58:13 34 TRAFF HAZARD 39XX TRIER RD
19F010312 19:17:50 15 ASSIST 15XX HIGH ST
19F010304 19:19:53 25 PD ACCIDENT AUBURN RD & E WALLEN RD
19F010305 19:23:42 40 ALARM 54XX KEYSTONE DR
19F010307 19:25:42 40A AUDIBLE 23XX W MAIN ST
19F010306 19:25:49 23,35 VAND VEH 72XX DECATUR RD
19F010313 19:32:40 37 PARKING VIOL 6XX LEXINGTON AVE
19F010308 19:32:55 129 103XX LOCHMERE CT
19F010314 19:35:30 63 CONTACT 5XX WATERMEADE PL
19F010309 19:36:29 25HS HIT SKIP TENNESSEE AVE & KENTUCKY AVE
19F010311 19:40:19 40A AUDIBLE 16XX E PONTIAC ST
19F010315 19:43:04 40A AUDIBLE 61XX W JEFFERSON BLVD
19F010317 19:43:30 33,34 N CLINTON ST & BETHANY LN
19F010316 19:43:40 40P PANIC ALARM 1XX W BERRY ST
19F010318 19:47:36 129 63XX RESERVE LINE RD
19F010319 19:48:32 40 ALARM 44XX AIRPORT EXPRESSWAY
19F010320 19:50:06 25HS HIT SKIP BROOKLYN AVE & TAYLOR ST
19F010328 19:53:08 61 RAPE 10XX HERMAN ST
19F010321 19:54:19 30 TRAFFIC STOP S CLINTON ST & E CREIGHTON AVE
19F010322 19:54:32 25 PD ACCIDENT LIBERTY MILLS RD & TOMAHAWK TRL
19F010323 19:56:10 20 PROBLEM UNK 4XX E WAYNE ST
19F010325 19:59:56 36 OCCUPIED VEH TRIER RD & MAYSVILLE RD
19F010324 20:05:13 129 3XX W SUTTENFIELD AVE
19F010327 20:06:35 911 HANG UP 5XX E RUDISILL BLVD
19F010326 20:07:36 46,96 49XX NORTHCREST DR
19F010329 20:20:38 27 RECKLESS DRI NEW HAVEN AVE & MEYER RD
19F010330 20:24:36 40A AUDIBLE 32XX FOXCROFT DR
19F010331 20:27:50 113 SHOTS FIRED ST JOE RD & PORTER DR
19F010332 20:31:38 43 DISTURBANCE 21XX NELSON ST
19F010333 20:34:48 46 DOMESTIC 72XX BEATY AVE
19F010335 20:36:55 43 DISTURBANCE 57XX MEADOWS DR UNIT E
19F010334 20:37:31 48,36 6XX TENNESSEE AVE
19F010338 20:46:41 45 NEIGHBORHOOD 23XX ISLAND CLUB DR
19F010346 20:51:37 35 PARKED VEHIC TENNESSEE AVE & CRESCENT AVE
19F010348 20:51:53 43 DISTURBANCE 16XX BAYVIEW DR
19F010336 20:52:00 103 UNWANTED 42XX COLDWATER RD
19F010337 20:58:53 65T SUICIDE THR 3XX W JEFFERSON BLVD
19F010339 21:02:40 46 DOMESTIC 71XX KEBIR CT
19F010340 21:05:19 48,36 NELSON ST & W WASHINGTON BLVD
19F010341 21:07:35 43,62 13XX HUESTIS AVE
19F010342 21:10:15 40 ALARM 2XX W MAIN ST
19F010343 21:11:42 48,36 29XX WESTBROOK DR
19F010344 21:27:06 22RN RUNAWAY 41XX REED ST
19F010345 21:30:37 30 TRAFFIC STOP RICKER RD & SR 37
19F010347 21:48:55 30 TRAFFIC STOP 38XX GAYWOOD DR
19F010353 21:49:43 63 CONTACT 17XX W FOURTH ST
19F010351 21:58:23 63 CONTACT 12XX ST MARYS AVE APT B
19F010352 21:59:21 25 PD ACCIDENT STELLHORN RD & MAPLECREST RD
19F010349 21:59:58 62 PARTY ARMED 16XX REED RD
19F010350 22:00:58 40A AUDIBLE 22XX CASS ST
19F010354 22:05:39 63 CONTACT 64XX EMMONS DR
19F010355 22:10:38 27 RECKLESS DRI E PONTIAC ST & S HANNA ST
19F010356 22:31:52 108 FOLLOWUP XX E MAIN ST
19F010357 22:33:56 129 54XX OLD MILL RD
19F010358 22:36:08 15 ASSIST 29XX WESTBROOK DR UNIT A401
19F010359 22:42:38 65T SUICIDE THR 41XX ARLINGTON AVE
19F010361 22:49:15 66 MENTALLY ILL 27XX SWIFT DR
19F010360 22:50:04 30 TRAFFIC STOP W STATE BLVD & WELLS ST
19F010363 22:52:47 102,TX THREATS 29XX REED ST
19F010362 22:55:02 129 2XX E PETTIT AVE
19F010364 23:02:51 96 BATTERY 49XX S CALHOUN ST
19F010365 23:14:55 108 FOLLOWUP 44XX PORTER DR
19F010366 23:15:21 30 TRAFFIC STOP ST JOE CENTER RD & RED OAK DR
19F010367 23:21:47 48,36 76XX OPPORTUNITY DR
19F010368 23:22:19 28 DUI W JEFFERSON BLVD & GETZ RD
19F010369 23:23:35 50IP BURG I/P 8XX MADISON ST
19F010376 23:25:05 65T SUICIDE THR 29XX WESTBROOK DR UNIT A401
19F010370 23:25:23 25 PD ACCIDENT 30XX GOSHEN RD
19F010371 23:27:33 33 DISABLED VEH 30XX I 469 SB
19F010375 23:27:40 19 ESCORT 69XX E SR 930
19F010372 23:28:35 44LM 16XX HOBSON RD
19F010373 23:31:21 65T SUICIDE THR 13XX SHERIDAN CT
19F010374 23:33:18 38 LOST/STOLEN 46XX E WASHINGTON BLVD
19F010377 23:42:07 102,TX THREATS 22XX CASS ST
19F010378 23:54:19 30 TRAFFIC STOP LIMA RD & W COLISEUM BLVD
19F010379 23:55:02 102 THREATS 16XX HOBSON RD
19F010380 23:55:33 911 HANG UP 31XX W COLISEUM BLVD